Location: City of Moscow
(46.7306°N, 116.9989°W)
Time: 06:43:14
(UTC+00:00)

USA 234 - Pass Details

Date: 15 March 2026
Orbit: 1102 x 1106 km, 123.0° (Epoch: 4 January)

Event Time Altitude Azimuth Distance (km) Brightness Sun altitude
Exits shadow 07:20:51 13° 290° (WNW) 2,748 5.6 -44.7°
Drops below altitude 10° 07:21:33 10° 293° (WNW) 2,967 5.8 -44.7°
Sets 07:24:21 0° 303° (WNW) 3,929 6.6 -44.8°
